Presure
131 128 130 146 112 129 118 125 116 94 123 135 126 115 150 110 134 151 123 124 132 130 135 129 131 131 128 125 172 135 145 129 135 135 137 140 146 135 161 140 150 143 206 143
111 129 123 122 141 133 128 129 150 129 163 119 124 125 124 104 139 132 145 130 118 134 120 129 135 136 131 136 125 138 140 146 132 131 133 129 135 141 138 137 156 140 136 141
112 134 134 130 119 116 121 129 132 121 132 138 121 139 100 119 122 150 123 179 129 132 129 133 126 125 129 129 135 132 142 127 134 148 128 131 131 122 134 145 136 148 143 141
134 121 124 138 135 119 113 136 122 130 122 134 117 145 136 115 133 141 128 147 157 119 129 120 132 132 131 130 125 121 132 142 140 137 137 137 131 134 129 125 146 135 143 143
142 138 136 131 144 136 138 121 138 127 132 133 124 139 128 134 140 140 125 143 147 118 121 135 138 131 124 124 127 168 130 134 129 120 140 147 145 129 128 131 128 138 139 143
154 127 140 142 138 122 138 141 141 142 146 149 136 142 127 142 149 151 141 134 140 128 142 127 126 127 120 122 158 124 120 133 134 134 135 144 138 144 132 132 118 133 139 141
107 130 81 85 127 150 121 93 142 140 138 139 115 140 148 127 146 137 139 125 134 119 105 127 142 155 128 135 136 164 120 135 124 126 130 123 130 149 134 143 130 138 135 139
151 131 129 134 133 115 125 142 119 150 156 136 146 152 146 142 134 139 133 150 143 123 132 138 126 143 149 143 131 123 158 140 127 131 130 133 153 147 139 149 150 130 138 147
138 134 132 126 155 145 139 144 104 161 132 168 156 155 160 144 135 98 123 106 142 111 125 134 128 149 142 127 137 154 129 167 140 142 178 132 125 130 148 146 146 143 135 151
135 158 150 145 143 140 141 139 132 137 134 142 141 131 140 110 141 155 155 128 105 154 121 117 145 136 136 131 153 134 145 120 143 145 182 136 139 134 125 155 141 132 135 138
141 142 145 123 135 132 129 131 99 136 142 145 117 146 144 152 153 138 125 149 142 142 148 120 142 142 132 140 161 143 127 118 124 133 118 126 127 141 150 145 136 144 144 134
130 128 130 147 146 146 139 139 132 132 137 141 151 155 157 148 143 150 134 137 115 153 119 135 133 152 129 163 101 123 145 131 145 146 113 155 120 132 131 134 135 154 141 157
139 148 157 125 128 127 130 133 137 137 143 145 145 151 148 151 122 129 139 149 155 148 136 116 89 157 131 116 123 163 129 122 135 146 126 136 152 123 153 126 138 144 142 149
184 146 133 134 134 131 130 83 137 143 145 145 139 139 134 144 152 135 133 130 131 129 138 99 148 182 152 128 113 161 125 120 134 147 156 128 158 143 154 153 133 139 131 148
181 173 205 158 155 149 142 140 140 140 141 139 143 146 144 145 148 138 142 146 143 142 131 135 126 139 136 124 107 130 154 141 160 198 148 139 132 157 142 143 152 141 154 133
230 228 239 247 218 220 206 202 220 204 200 205 148 146 118 158 129 155 152 160 131 144 132 137 135 118 116 119 140 140 118 140 132 124 143 153 147 152 186 138 164 145 149 155
219 229 226 229 233 243 247 244 222 211 214 217 219 220 129 164 229 231 235 237 237 179 114 133 135 125 114 114 130 121 133 142 150 145 143 131 133 155 164 173 142 140 124 120
210 205 209 216 229 233 237 239 236 235 235 235 238 230 209 214 190 223 228 200 233 236 236 165 219 185 132 154 144 125 118 115 130 142 150 141 144 150 136 152 152 157 140 166
207 209 213 218 225 220 241 239 237 234 232 230 229 231 231 232 233 234 236 236 208 234 240 242 250 250 93 142 158 98 266 189 249 114 133 122 134 136 143 153 129 161 135 145
207 209 207 205 211 211 215 216 213 213 208 238 236 232 231 230 228 123 228 230 154 234 238 239 236 234 234 239 240 101 247 109 134 258 261 237 186 158 156 148 161 161 157 143
210 208 209 213 209 207 209 211 213 219 205 118 102 216 221 217 215 234 234 232 233 237 241 241 245 250 252 207 215 109 264 106 169 248 137 120 125 153 239 135 123 157 165 159
214 213 211 207 204 204 209 212 213 215 226 218 224 216 233 233 233 235 230 231 232 232 234 238 241 237 247 257 264 269 251 262 97 221 267 186 171 255 232 191 210 131 166 128
214 217 215 215 220 219 213 218 221 221 219 218 220 221 223 224 233 283 286 284 287 281 284 297 309 320 323 326 318 335 268 362 176 153 383 256 411 254 217 242 158 150 202 138
224 209 209 212 211 218 223 226 232 237 243 277 280 272 270 271 278 273 271 271 279 275 287 306 301 402 374 335 264 322 310 311 320 328 265 113 103 151 235 237 118 142 193 272
221 226 225 224 223 243 247 275 273 274 273 272 271 268 265 272 257 259 269 286 302 302 334 380 326 304 299 291 293 289 311 324 245 226 355 307 353 355 257 135 148 420 121 225
228 269 276 268 260 255 255 257 257 275 295 297 293 297 298 296 284 281 293 343 366 335 316 288 287 275 276 277 294 283 287 329 336 337 380 438 385 375 219 140 376 367 139 278
Wind_Speed
36 32 34 48 17 28 20 21 16 4 15 17 10 16 16 13 18 20 16 14 14 11 7 9 11 9 5 2 18 8 11 10 8 9 12 13 16 13 20 12 16 15 25 18
25 39 33 28 41 40 29 26 33 25 31 19 16 22 19 15 23 22 28 23 18 17 20 11 11 8 11 9 5 10 10 11 8 5 6 6 9 11 10 12 17 12 12 14
35 48 47 38 31 27 31 25 25 25 33 32 21 28 12 23 22 23 19 34 26 21 21 17 16 13 12 13 15 12 16 8 8 9 7 3 2 4 8 10 8 12 10 10
47 43 42 50 45 33 30 45 28 37 31 31 24 37 28 27 27 26 23 27 27 24 27 26 24 18 12 15 16 13 13 18 13 7 9 10 6 4 2 4 9 6 9 8
55 53 53 47 51 48 51 40 54 38 37 37 30 35 29 33 31 28 27 30 27 29 31 36 33 21 13 17 21 18 16 17 13 12 11 14 8 11 7 4 5 4 4 6
61 41 59 57 46 33 55 53 55 52 51 51 45 41 36 40 45 41 33 31 31 38 45 33 32 27 24 26 28 27 22 26 19 14 16 20 13 13 11 10 7 5 2 4
35 50 10 11 42 63 38 12 53 54 47 39 31 45 47 35 46 34 35 37 36 36 27 37 42 53 32 33 37 44 29 38 26 21 21 21 17 21 13 11 13 7 6 3
58 48 47 46 44 37 46 54 37 63 66 41 52 55 49 43 39 40 41 53 48 41 43 40 46 53 54 42 42 38 47 37 32 32 25 27 25 23 19 21 15 17 10 7
56 55 47 44 65 56 53 59 25 70 42 66 57 56 62 48 43 26 45 37 54 39 47 46 53 58 56 42 48 53 42 53 39 39 51 28 23 23 30 27 23 16 16 13
58 70 61 60 59 54 55 53 50 53 46 46 45 46 50 36 49 60 59 55 38 67 55 45 55 58 59 52 60 37 43 30 37 37 58 33 36 30 22 33 24 23 22 19
62 63 63 43 57 52 51 53 30 59 56 54 36 52 52 59 59 50 50 58 63 57 62 56 59 65 62 61 70 51 36 29 34 37 24 30 31 38 37 35 29 30 27 24
61 62 62 66 63 62 61 66 63 57 54 53 56 57 59 58 59 61 55 59 59 73 64 66 61 67 59 78 15 29 51 36 45 47 32 51 36 41 35 36 33 36 30 33
71 76 77 58 58 60 65 67 69 65 63 60 60 62 59 59 57 56 63 70 72 69 70 53 15 72 69 45 46 73 49 36 46 52 40 41 53 42 52 38 43 41 37 38
84 73 63 64 66 65 67 25 74 73 68 67 63 61 61 63 66 64 65 65 65 66 69 43 75 79 77 62 40 69 51 37 56 59 58 49 60 56 54 53 42 46 34 42
80 90 85 86 85 81 74 75 76 79 71 68 70 71 69 68 69 67 69 71 71 72 71 73 76 76 78 70 30 63 73 69 70 80 63 61 53 63 55 53 56 44 50 37
67 65 56 55 83 81 91 93 84 95 98 100 56 78 56 87 62 76 73 79 70 76 74 76 77 78 74 74 84 79 55 71 62 55 63 65 65 65 72 55 62 55 51 52
70 62 64 61 57 55 60 68 83 89 87 88 92 94 57 67 95 95 93 93 92 81 45 82 83 83 71 61 86 75 80 76 75 74 74 63 61 67 66 65 62 59 44 42
72 79 79 73 59 54 55 59 65 70 74 78 79 86 99 101 85 100 98 90 96 95 93 64 90 90 90 79 93 63 55 63 74 71 76 76 78 77 60 66 65 66 62 62
72 72 69 66 60 59 51 57 62 66 71 75 80 84 87 87 88 91 92 95 79 92 92 92 90 90 20 64 53 41 91 92 98 52 70 57 77 78 81 76 55 67 59 68
73 70 73 74 64 69 71 69 69 68 71 72 75 77 79 83 86 39 90 91 58 95 95 95 98 101 101 101 99 41 95 46 85 90 100 104 88 84 87 77 83 72 69 67
69 70 69 70 70 67 70 68 70 71 74 29 27 82 84 89 92 90 96 100 101 100 101 101 101 100 100 79 79 28 100 33 59 102 66 40 51 77 104 72 32 81 76 72
62 65 68 71 73 72 73 75 77 80 83 84 85 77 87 87 88 89 91 94 96 97 98 100 102 101 105 107 109 112 102 78 37 80 86 67 65 105 98 86 91 43 82 56
59 61 60 64 68 72 73 74 77 79 81 82 85 85 87 90 95 87 89 91 93 95 96 95 94 91 88 85 86 81 46 61 72 54 72 62 81 104 94 99 96 76 77 56
54 54 57 63 68 71 75 79 83 86 87 79 78 83 82 81 79 81 83 85 85 87 84 77 76 51 46 47 62 52 52 56 60 63 51 34 46 57 66 60 55 84 69 101
52 57 61 64 67 66 71 64 66 67 69 70 71 73 75 75 78 80 80 80 75 73 53 30 29 33 36 40 43 49 43 44 45 57 66 74 77 76 68 58 73 77 59 99
53 46 43 44 47 50 54 57 60 61 60 61 64 62 63 66 72 73 72 49 28 23 21 27 23 30 33 35 34 37 42 39 26 32 36 34 51 59 64 54 74 65 82 99
Wind_Direction
234 246 247 239 250 254 250 260 234 299 257 247 255 209 265 235 281 269 276 276 275 268 260 263 269 271 263 296 357 356 360 344 29 36 54 45 35 21 53 33 54 42 54 55
257 246 243 243 241 249 247 253 258 256 267 244 237 240 241 259 271 264 267 264 257 269 259 260 275 292 297 318 315 345 337 343 329 358 29 45 45 42 26 30 56 33 31 44
244 245 245 244 248 258 249 250 258 254 252 252 228 246 267 250 252 272 260 296 257 263 264 266 261 262 288 295 315 311 318 304 312 328 316 342 19 11 34 33 27 40 45 48
236 239 241 248 247 250 255 261 254 253 248 251 240 267 243 252 264 273 245 274 284 259 256 252 260 257 268 286 283 266 293 306 309 290 308 312 298 308 307 347 32 25 37 27
237 239 242 240 248 248 251 249 254 251 244 255 241 252 245 261 263 263 245 275 263 248 247 255 261 262 253 262 280 281 275 279 266 261 296 320 294 287 282 295 307 24 13 37
236 234 241 243 240 240 247 249 253 255 256 256 259 257 259 264 273 274 258 255 257 253 265 261 259 260 256 259 272 262 257 269 265 267 276 288 266 295 277 273 268 286 350 349
244 246 201 194 241 245 244 254 250 253 254 253 258 258 257 260 262 250 251 245 250 258 239 264 274 282 249 248 257 285 248 259 248 245 251 253 253 284 255 264 266 257 252 283
243 246 247 249 248 255 255 250 259 252 253 248 253 256 257 253 248 257 248 268 259 266 257 261 262 273 275 263 245 245 271 259 246 248 243 252 257 271 250 276 264 266 248 275
244 246 249 250 250 246 246 246 251 254 255 256 252 256 259 252 248 260 258 270 263 268 263 253 257 265 265 254 260 271 240 278 241 248 273 248 249 254 265 263 265 243 251 276
248 249 249 248 252 254 252 252 254 255 253 249 243 245 247 262 249 260 259 256 264 265 264 265 259 257 261 262 264 251 259 248 267 263 273 257 255 261 255 255 259 260 250 241
247 249 249 251 250 253 256 255 238 251 252 251 261 245 245 253 256 248 258 253 259 253 257 260 263 247 261 264 263 255 256 266 264 259 256 260 261 257 258 255 256 255 254 241
242 244 244 249 248 250 253 255 255 255 253 252 254 255 253 250 251 254 248 248 257 256 263 256 255 252 251 265 230 257 258 255 256 254 267 260 265 268 268 263 258 252 260 254
245 251 254 251 249 247 248 250 254 255 257 256 255 254 252 251 246 248 248 251 252 250 250 259 216 256 259 277 245 263 274 258 266 261 253 252 254 255 264 254 262 255 258 255
248 250 245 246 248 248 250 183 257 256 255 255 250 253 248 249 252 244 247 250 252 254 254 261 257 256 259 267 268 260 265 258 264 258 252 255 256 253 257 251 251 255 247 253
249 252 251 255 257 259 255 257 259 260 254 251 255 255 250 249 249 243 246 249 250 250 254 255 264 262 263 268 253 265 258 259 257 256 253 253 258 252 255 253 252 248 244 245
250 250 254 255 252 253 255 258 259 261 262 263 269 257 259 262 254 255 250 254 251 248 252 251 249 271 277 279 261 261 274 263 265 265 260 255 254 252 253 256 248 253 249 247
252 253 253 256 257 255 254 255 258 260 262 263 265 267 265 268 267 267 266 267 268 253 255 249 250 258 260 277 264 278 264 258 256 258 261 260 259 252 248 248 252 253 238 240
253 256 259 259 260 261 259 257 257 256 257 258 259 262 266 267 270 270 271 266 270 270 269 262 263 261 256 260 255 252 250 265 261 253 249 257 260 259 254 245 243 245 254 246
252 255 258 260 261 264 263 260 258 256 255 256 258 260 261 262 263 266 267 268 267 269 269 269 269 268 231 255 246 235 255 259 253 248 251 256 259 262 261 253 251 239 255 252
253 255 258 262 262 264 264 266 270 268 267 263 264 265 267 268 269 276 268 269 274 270 270 270 270 269 270 269 266 231 262 238 265 251 252 254 249 253 247 253 250 240 240 247
252 258 261 264 268 274 275 274 273 271 267 269 268 265 267 265 267 271 272 271 270 271 270 270 270 270 270 269 267 267 266 228 261 255 253 254 253 238 248 263 246 248 242 235
254 255 258 260 264 268 271 272 272 273 273 269 272 272 272 272 272 271 270 270 272 272 271 271 272 273 273 275 276 275 272 267 240 266 261 250 245 248 243 249 251 252 243 249
255 259 262 267 269 269 271 272 273 273 273 273 272 272 272 273 275 274 274 275 276 276 276 276 276 277 278 279 280 281 270 273 272 267 264 255 262 249 246 243 236 260 246 252
264 263 267 268 268 270 272 273 273 273 274 274 274 274 274 273 274 274 275 276 277 278 279 278 280 279 275 273 269 284 281 280 279 273 258 223 253 263 258 253 258 242 244 242
271 271 271 272 273 274 273 274 275 276 275 274 274 274 274 274 274 276 278 280 280 281 281 282 274 267 273 281 285 283 294 289 283 279 269 266 262 257 251 244 243 242 261 240
274 280 282 278 275 273 274 277 279 282 282 281 279 278 277 276 275 278 281 284 270 272 265 262 269 279 280 284 298 292 292 293 311 330 298 276 259 254 250 248 245 250 245 232